181034948,2009-02-07T08:19:50.886,-1860.74, 9308413,  36.71, -59.07, 2575000, 2575000, 2575000, 2575000, 2575000,    6788,    0.01,  21.134,    -Inf,    3.18,    0.00
181034949,2009-02-07T08:19:54.884,-1856.74, 9250883,  40.57, -59.86, 2575000, 2575000, 2575000, 2575000, 2575000,    6477,   -0.13,  18.453,    -Inf,    4.10,    0.00
181034950,2009-02-07T08:19:58.787,-1852.83, 9201388,  44.43, -60.48, 2575000, 2575000, 2575000, 2575000, 2575000,    3782,    0.04,  15.884,    -Inf,    3.44,    0.00
181034951,2009-02-07T08:20:02.690,-1848.93, 9158637,  48.36, -60.96, 2575000, 2575000, 2575000, 2575000, 2575000,    3773,    0.02,  13.345,    -Inf,    3.68,    0.00
181034952,2009-02-07T08:20:06.593,-1845.03, 9089265,  52.34, -61.25, 2575000, 2575000, 2575000, 2575000, 2575000,    2939,    0.21,  10.841,    -Inf,    4.51,    0.00
181034953,2009-02-07T08:20:10.883,-1840.74, 9076524,  56.73, -61.42, 2575000, 2575000, 2575000, 2575000, 2575000,    1940,   -0.01,   8.115,    -Inf,    5.76,    0.00
181034954,2009-02-07T08:20:14.786,-1836.84, 9044566,  60.58, -61.43, 2575000, 2575000, 2575000, 2575000, 2575000,    1614,    0.09,   5.734,    -Inf,    7.43,    0.00
181034955,2009-02-07T08:20:18.689,-1832.93, 9015906,  63.43, -61.32, 2571009, 2573847, 2570417, 2575263, 2574293,     415,    0.31,   3.950,   -2.07,   14.48,    0.39
181034956,2009-02-07T08:20:22.592,-1829.03, 8991353,  65.69, -61.17, 2573697, 2574516, 2573051, 2574935, 2574479,     375,    0.18,   2.513,    1.76,   20.75,    0.17
181034957,2009-02-07T08:20:26.883,-1824.74, 8965781,  67.56, -60.98, 2575026, 2574885, 2574394, 2574955, 2575125,     347,    0.37,   1.305,    0.29,   19.37,    0.40
181034958,2009-02-07T08:20:30.786,-1820.84, 8943326,  68.75, -60.82, 2575151, 2575003, 2574760, 2574955, 2575180,     207,    0.48,   0.542,    1.23,   21.20,    0.38
181034959,2009-02-07T08:20:34.689,-1816.93, 8921142,  69.57, -60.68, 2575123, 2574970, 2574876, 2575021, 2575156,     100,    0.32,   0.279,    2.28,   24.55,    0.01
181034960,2009-02-07T08:20:38.592,-1813.03, 8898957,  69.93, -60.58, 2575129, 2575006, 2574909, 2575085, 2575158,      98,    0.26,   0.467,    1.14,   22.09,    0.02
181034961,2009-02-07T08:20:42.883,-1808.74, 8874674,  69.86, -60.49, 2575096, 2575008, 2574892, 2575069, 2575125,     101,    0.66,   0.476,    0.74,   21.40,    0.04
181034962,2009-02-07T08:20:46.786,-1804.84, 8852459,  69.66, -60.44, 2575073, 2575002, 2574870, 2575036, 2575102,     109,    1.19,   0.426,    2.89,   25.44,    0.08
181034963,2009-02-07T08:20:50.689,-1800.93, 8830304,  69.46, -60.40, 2575128, 2575026, 2574891, 2575055, 2575157,     119,    0.62,   0.415,    0.35,   22.03,    0.08
181034964,2009-02-07T08:20:54.592,-1797.03, 8808120,  69.23, -60.42, 2575120, 2575028, 2574867, 2575019, 2575150,     143,    1.07,   0.356,   -0.35,   22.21,    0.09
181034965,2009-02-07T08:20:58.883,-1792.74, 8783807,  69.02, -60.45, 2575187, 2575009, 2574857, 2575005, 2575218,     141,    0.62,   0.323,    0.37,   22.79,    0.13
181034966,2009-02-07T08:21:02.786,-1788.84, 8761712,  68.82, -60.48, 2575142, 2575012, 2574832, 2574977, 2575173,     164,    0.52,   0.312,    1.12,   23.33,    0.26
181034967,2009-02-07T08:21:06.689,-1784.93, 8739587,  68.61, -60.50, 2575034, 2574970, 2574804, 2574952, 2575065,     143,    0.80,   0.336,    0.77,   21.91,    0.21
181034968,2009-02-07T08:21:10.592,-1781.03, 8717403,  68.42, -60.57, 2575058, 2575035, 2574822, 2574970, 2575089,     164,    0.94,   0.335,    0.88,   22.78,    0.20
181034969,2009-02-07T08:21:14.883,-1776.74, 8693239,  68.21, -60.64, 2574995, 2574905, 2574742, 2574894, 2575025,     163,    0.89,   0.366,    0.80,   21.26,    0.28
181034970,2009-02-07T08:21:18.786,-1772.84, 8671145,  68.01, -60.71, 2575087, 2574942, 2574758, 2574919, 2575116,     175,    0.40,   0.421,    0.56,   20.37,    0.37
181034971,2009-02-07T08:21:22.689,-1768.93, 8649050,  67.84, -60.77, 2574974, 2574934, 2574703, 2574874, 2575002,     188,    0.73,   0.469,    1.32,   22.43,    0.30
181034972,2009-02-07T08:21:26.592,-1765.03, 8626985,  67.74, -60.84, 2574985, 2574715, 2574600, 2574775, 2575013,     221,    0.21,   0.487,   -1.68,   19.15,    0.95
181034973,2009-02-07T08:21:30.883,-1760.74, 8602672,  67.68, -60.92, 2574970, 2574885, 2574723, 2574896, 2574998,     158,    1.05,   0.481,    2.96,   24.16,    0.17
181034974,2009-02-07T08:21:34.786,-1756.84, 8580637,  67.63, -60.98, 2574982, 2574986, 2574739, 2574912, 2575010,     161,    0.60,   0.482,    3.65,   26.62,    0.19
181034975,2009-02-07T08:21:38.689,-1752.93, 8558333,  67.57, -61.05, 2574976, 2574992, 2574752, 2574925, 2575004,     172,    0.85,   0.486,    3.94,   26.80,    0.10
181034976,2009-02-07T08:21:42.592,-1749.03, 8536418,  67.51, -61.12, 2574975, 2574821, 2574703, 2574879, 2575003,     141,    0.83,   0.499,    4.79,   27.63,    0.00
181034977,2009-02-07T08:21:46.883,-1744.74, 8512075,  67.47, -61.19, 2574958, 2574845, 2574676, 2574854, 2574986,     171,    0.56,   0.509,    3.74,   24.26,    0.26
181034978,2009-02-07T08:21:50.786,-1740.84, 8490010,  67.41, -61.26, 2574951, 2574896, 2574727, 2574909, 2574978,     172,    1.19,   0.531,    4.35,   25.74,    0.05
181034979,2009-02-07T08:21:54.689,-1736.93, 8467915,  67.35, -61.32, 2574948, 2574892, 2574752, 2574941, 2574976,     148,    1.25,   0.557,    6.17,   30.42,    0.03
181034980,2009-02-07T08:21:58.592,-1733.03, 8445761,  67.36, -61.39, 2574965, 2574959, 2574718, 2574905, 2574993,     186,    0.94,   0.549,    4.89,   26.48,    0.03
181034981,2009-02-07T08:22:02.883,-1728.74, 8421507,  67.36, -61.47, 2574929, 2574952, 2574730, 2574920, 2574957,     157,    0.81,   0.561,    5.78,   27.50,    0.00
181034982,2009-02-07T08:22:06.786,-1724.84, 8399503,  67.37, -61.53, 2574941, 2574927, 2574768, 2574960, 2574968,     144,    2.15,   0.573,    8.44,   32.49,    0.22
181034983,2009-02-07T08:22:10.689,-1720.93, 8377468,  67.37, -61.59, 2574956, 2574946, 2574712, 2574908, 2574984,     163,    0.69,   0.590,    4.67,   25.36,    0.03
181034984,2009-02-07T08:22:14.592,-1717.03, 8355463,  67.38, -61.67, 2574977, 2574887, 2574716, 2574923, 2575005,     176,    1.42,   0.626,    6.62,   27.79,    0.01
181034985,2009-02-07T08:22:18.883,-1712.74, 8331090,  67.37, -61.71, 2574956, 2574954, 2574701, 2574909, 2574984,     171,    0.80,   0.629,    6.90,   27.24,    0.05
181034986,2009-02-07T08:22:22.786,-1708.84, 8309145,  67.37, -61.75, 2574971, 2574875, 2574662, 2574870, 2575000,     180,    1.04,   0.634,    5.30,   26.11,    0.03
181034987,2009-02-07T08:22:26.689,-1704.93, 8287200,  67.35, -61.78, 2574976, 2574890, 2574672, 2574878, 2575004,     197,    0.93,   0.628,    4.62,   25.75,    0.18
181034988,2009-02-07T08:22:30.592,-1701.03, 8264986,  67.35, -61.79, 2574971, 2574976, 2574744, 2574939, 2574998,     173,    1.04,   0.593,    7.50,   30.55,    0.02
181034989,2009-02-07T08:22:34.882,-1696.74, 8240763,  67.32, -61.79, 2575012, 2574972, 2574742, 2574923, 2575039,     178,    1.05,   0.546,    7.10,   29.94,    0.04
181034990,2009-02-07T08:22:38.785,-1692.84, 8218938,  67.31, -61.78, 2575009, 2574932, 2574746, 2574917, 2575036,     162,    0.91,   0.503,    8.15,   29.61,    0.18
181034991,2009-02-07T08:22:42.688,-1688.93, 8196693,  67.29, -61.78, 2575019, 2574963, 2574786, 2574946, 2575046,     136,    1.31,   0.463,    7.73,   29.76,    0.04
181034992,2009-02-07T08:22:46.591,-1685.03, 8174778,  67.27, -61.78, 2575026, 2574876, 2574745, 2574897, 2575053,     143,    1.10,   0.424,    6.63,   27.55,    0.12
181034993,2009-02-07T08:22:50.882,-1680.74, 8150495,  67.24, -61.79, 2575010, 2574960, 2574776, 2574920, 2575037,     136,    0.85,   0.388,    7.34,   28.40,    0.15
181034994,2009-02-07T08:22:54.785,-1676.84, 8128670,  67.22, -61.79, 2575012, 2574829, 2574736, 2574876, 2575040,     136,    0.57,   0.367,    5.45,   27.04,    0.20
181034995,2009-02-07T08:22:58.688,-1672.93, 8106545,  67.19, -61.79, 2575012, 2574951, 2574804, 2574939, 2575040,     121,    1.05,   0.336,    8.16,   29.02,    0.05
181034996,2009-02-07T08:23:02.591,-1669.03, 8084691,  67.15, -61.80, 2574979, 2574896, 2574776, 2574907, 2575007,     115,    1.08,   0.310,    6.87,   27.51,    0.06
181034997,2009-02-07T08:23:06.882,-1664.74, 8060467,  67.13, -61.80, 2574984, 2574838, 2574763, 2574890, 2575013,     113,    0.76,   0.290,    7.08,   30.54,    0.22
181034998,2009-02-07T08:23:10.785,-1660.84, 8038493,  67.09, -61.81, 2574992, 2574922, 2574808, 2574933, 2575021,      92,    1.63,   0.271,    9.86,   32.38,    0.12
181034999,2009-02-07T08:23:14.688,-1656.93, 8016398,  67.05, -61.82, 2574967, 2574874, 2574767, 2574891, 2574996,     111,    0.97,   0.266,    6.55,   28.12,    0.07
181035000,2009-02-07T08:23:18.591,-1653.03, 7994483,  67.02, -61.82, 2574955, 2574877, 2574752, 2574875, 2574984,     107,    0.78,   0.263,    6.22,   27.37,    0.06
181035001,2009-02-07T08:23:22.882,-1648.74, 7970380,  66.97, -61.83, 2574933, 2574877, 2574765, 2574887, 2574962,      99,    1.34,   0.254,    7.47,   29.36,    0.05
181035002,2009-02-07T08:23:26.785,-1644.84, 7948375,  66.93, -61.83, 2574931, 2574901, 2574782, 2574903, 2574960,      94,    1.31,   0.258,    7.99,   31.00,    0.10
181035003,2009-02-07T08:23:30.688,-1640.93, 7926430,  66.88, -61.84, 2574905, 2574885, 2574755, 2574876, 2574934,     100,    1.05,   0.259,    6.74,   29.93,    0.05
181035004,2009-02-07T08:23:34.591,-1637.03, 7904515,  66.83, -61.86, 2574915, 2574874, 2574756, 2574878, 2574943,      95,    1.47,   0.269,    8.59,   29.96,    0.07
181035005,2009-02-07T08:23:38.882,-1632.74, 7880352,  66.77, -61.87, 2574886, 2574874, 2574748, 2574871, 2574914,      99,    1.59,   0.278,    7.53,   30.69,    0.14
181035006,2009-02-07T08:23:42.785,-1628.84, 7858437,  66.71, -61.88, 2574884, 2574881, 2574775, 2574898, 2574911,      76,    1.82,   0.288,    8.76,   31.70,    0.18
181035007,2009-02-07T08:23:46.688,-1624.93, 7836492,  66.67, -61.88, 2574895, 2574874, 2574749, 2574875, 2574922,      90,    1.27,   0.312,    8.71,   31.13,    0.11
181035008,2009-02-07T08:23:50.591,-1621.03, 7814548,  66.62, -61.90, 2574896, 2574881, 2574743, 2574870, 2574923,     101,    1.27,   0.325,    7.46,   31.44,    0.10
181035009,2009-02-07T08:23:54.882,-1616.74, 7790444,  66.55, -61.91, 2574890, 2574888, 2574750, 2574879, 2574916,      98,    1.53,   0.339,    8.19,   31.63,    0.09
181035010,2009-02-07T08:23:58.785,-1612.84, 7768559,  66.49, -61.92, 2574872, 2574874, 2574753, 2574884, 2574899,      91,    1.96,   0.354,    7.74,   32.47,    0.19
181035011,2009-02-07T08:24:02.688,-1608.93, 7746645,  66.43, -61.93, 2574876, 2574830, 2574697, 2574830, 2574902,     100,    0.91,   0.371,    7.07,   28.76,    0.03
181035012,2009-02-07T08:24:06.591,-1605.03, 7724760,  66.37, -61.96, 2574855, 2574842, 2574696, 2574831, 2574881,     113,    1.34,   0.383,    6.05,   30.91,    0.11
181035013,2009-02-07T08:24:10.882,-1600.74, 7700716,  66.29, -61.97, 2574868, 2574840, 2574703, 2574841, 2574893,      95,    0.88,   0.400,    8.10,   30.85,    0.05
181035014,2009-02-07T08:24:14.785,-1596.84, 7678862,  66.22, -61.98, 2574851, 2574802, 2574694, 2574834, 2574876,     105,    1.18,   0.414,    6.52,   28.75,    0.03
181035015,2009-02-07T08:24:18.688,-1592.93, 7657067,  66.18, -62.00, 2574847, 2574826, 2574665, 2574809, 2574873,     100,    0.59,   0.436,    7.64,   28.85,    0.08
181035016,2009-02-07T08:24:22.591,-1589.03, 7635032,  66.10, -62.02, 2574842, 2574837, 2574683, 2574830, 2574867,     113,    1.34,   0.451,    8.66,   32.23,    0.08
181035017,2009-02-07T08:24:26.882,-1584.74, 7610959,  66.03, -62.03, 2574842, 2574866, 2574685, 2574835, 2574867,     124,    1.16,   0.467,    7.29,   30.44,    0.02
181035018,2009-02-07T08:24:30.785,-1580.84, 7589134,  65.95, -62.07, 2574841, 2574806, 2574664, 2574813, 2574866,     120,    1.15,   0.466,    8.17,   30.09,    0.01
181035019,2009-02-07T08:24:34.688,-1576.93, 7567279,  65.87, -62.12, 2574824, 2574795, 2574643, 2574788, 2574849,     129,    1.14,   0.448,    7.32,   29.40,    0.06
181035020,2009-02-07T08:24:38.591,-1573.03, 7545424,  65.80, -62.17, 2574827, 2574788, 2574658, 2574800, 2574852,     103,    1.66,   0.439,    7.59,   30.88,    0.10
181035021,2009-02-07T08:24:42.882,-1568.74, 7521411,  65.70, -62.24, 2574847, 2574793, 2574669, 2574805, 2574872,      95,    1.45,   0.413,    8.58,   32.07,    0.10
181035022,2009-02-07T08:24:46.785,-1564.84, 7499526,  65.61, -62.29, 2574848, 2574819, 2574655, 2574788, 2574873,     119,    0.80,   0.396,    7.97,   29.91,    0.14
181035023,2009-02-07T08:24:50.688,-1560.93, 7477701,  65.51, -62.34, 2574841, 2574770, 2574670, 2574800, 2574866,      94,    1.00,   0.378,    8.53,   31.87,    0.06
181035024,2009-02-07T08:24:54.591,-1557.03, 7455876,  65.44, -62.40, 2574824, 2574824, 2574693, 2574821, 2574849,      94,    1.57,   0.372,    9.02,   33.05,    0.09
181035025,2009-02-07T08:24:58.881,-1552.74, 7431893,  65.33, -62.47, 2574853, 2574764, 2574668, 2574792, 2574878,     101,    0.75,   0.355,    8.80,   30.93,    0.14
181035026,2009-02-07T08:25:02.784,-1548.84, 7410068,  65.24, -62.52, 2574856, 2574817, 2574679, 2574802, 2574881,     113,    1.36,   0.343,    8.88,   30.33,    0.03
181035027,2009-02-07T08:25:06.687,-1544.93, 7388213,  65.15, -62.57, 2574851, 2574818, 2574693, 2574815, 2574876,      89,    0.98,   0.344,    9.42,   31.58,    0.04
181035028,2009-02-07T08:25:10.590,-1541.03, 7366448,  65.05, -62.63, 2574830, 2574827, 2574705, 2574824, 2574855,     102,    1.91,   0.334,    8.97,   31.26,    0.12
181035029,2009-02-07T08:25:14.881,-1536.74, 7342434,  64.94, -62.69, 2574838, 2574834, 2574690, 2574809, 2574863,     111,    1.35,   0.326,    7.71,   33.07,    0.06
181035030,2009-02-07T08:25:18.784,-1532.84, 7320610,  64.85, -62.75, 2574844, 2574856, 2574728, 2574847, 2574869,      94,    1.80,   0.334,   11.49,   36.27,    0.14
181035031,2009-02-07T08:25:22.687,-1528.93, 7298935,  64.74, -62.80, 2574828, 2574756, 2574687, 2574805, 2574853,      87,    1.37,   0.330,    8.70,   32.83,    0.03
181035032,2009-02-07T08:25:26.590,-1525.03, 7277110,  64.65, -62.86, 2574862, 2574801, 2574690, 2574810, 2574887,      91,    1.37,   0.345,    7.39,   32.08,    0.10
181035033,2009-02-07T08:25:30.881,-1520.74, 7253216,  64.52, -62.92, 2574890, 2574733, 2574646, 2574767, 2574915,     102,    0.37,   0.354,    5.01,   27.02,    0.16
181035034,2009-02-07T08:25:34.784,-1516.84, 7231421,  64.41, -62.98, 2574871, 2574754, 2574661, 2574782, 2574895,      93,    0.63,   0.357,    6.78,   29.56,    0.00
181035035,2009-02-07T08:25:38.687,-1512.93, 7209656,  64.31, -63.04, 2574903, 2574787, 2574685, 2574809, 2574927,      81,    0.91,   0.380,    8.01,   31.02,    0.10
181035036,2009-02-07T08:25:42.590,-1509.03, 7187861,  64.19, -63.09, 2574912, 2574799, 2574693, 2574818, 2574936,      91,    1.06,   0.389,    8.19,   32.36,    0.08
181035037,2009-02-07T08:25:46.881,-1504.74, 7163998,  64.08, -63.15, 2574911, 2574765, 2574670, 2574801, 2574935,      86,    0.46,   0.417,    7.63,   30.23,    0.05
181035038,2009-02-07T08:25:50.784,-1500.84, 7142233,  63.96, -63.22, 2574889, 2574780, 2574682, 2574817, 2574913,      87,    0.65,   0.441,    8.05,   32.35,    0.06
181035039,2009-02-07T08:25:54.687,-1496.93, 7120558,  63.85, -63.27, 2574919, 2574763, 2574682, 2574821, 2574943,     100,    0.57,   0.459,    6.17,   28.52,    0.16
181035040,2009-02-07T08:25:58.590,-1493.03, 7098793,  63.73, -63.33, 2574911, 2574762, 2574639, 2574783, 2574935,     121,    0.67,   0.488,    5.47,   27.96,    0.07
181035041,2009-02-07T08:26:02.881,-1488.74, 7074990,  63.60, -63.39, 2574872, 2574704, 2574615, 2574766, 2574897,     120,    0.38,   0.516,    4.06,   26.00,    0.23
181035042,2009-02-07T08:26:06.784,-1484.84, 7053225,  63.47, -63.45, 2574908, 2574758, 2574645, 2574802, 2574933,     113,    1.05,   0.544,    6.54,   29.25,    0.00
181035043,2009-02-07T08:26:10.687,-1480.93, 7031520,  63.35, -63.48, 2574876, 2574787, 2574662, 2574818, 2574901,      96,    1.86,   0.540,    8.19,   32.32,    0.16
181035044,2009-02-07T08:26:14.590,-1477.03, 7009845,  63.23, -63.52, 2574903, 2574781, 2574669, 2574824, 2574929,     126,    1.19,   0.538,    5.14,   27.22,    0.07
181035045,2009-02-07T08:26:18.881,-1472.74, 6985951,  63.08, -63.56, 2574890, 2574783, 2574648, 2574802, 2574915,     106,    1.38,   0.538,    7.64,   30.47,    0.11
181035046,2009-02-07T08:26:22.784,-1468.84, 6964186,  62.95, -63.58, 2574880, 2574793, 2574665, 2574815, 2574905,     112,    1.03,   0.524,    5.97,   28.51,    0.00
181035047,2009-02-07T08:26:26.687,-1464.93, 6942571,  62.82, -63.62, 2574847, 2574806, 2574670, 2574820, 2574872,     106,    1.52,   0.526,    7.62,   31.26,    0.09
181035048,2009-02-07T08:26:30.590,-1461.03, 6920926,  62.67, -63.66, 2574859, 2574783, 2574653, 2574806, 2574884,     110,    1.03,   0.537,    5.31,   27.39,    0.02
181035049,2009-02-07T08:26:34.881,-1456.74, 6897033,  62.46, -63.71, 2574855, 2574795, 2574635, 2574793, 2574881,     125,    1.15,   0.560,    6.24,   27.64,    0.02
181035050,2009-02-07T08:26:38.784,-1452.84, 6875388,  62.24, -63.76, 2574829, 2574847, 2574697, 2574863, 2574857,     102,    2.02,   0.590,    8.08,   32.83,    0.17
181035051,2009-02-07T08:26:42.687,-1448.93, 6853713,  61.96, -63.79, 2574842, 2574795, 2574632, 2574809, 2574871,     127,    1.32,   0.629,    6.73,   28.46,    0.00
181035052,2009-02-07T08:26:46.590,-1445.03, 6832098,  61.68, -63.80, 2574861, 2574865, 2574672, 2574857, 2574892,     135,    1.28,   0.657,    6.73,   30.80,    0.08
181035053,2009-02-07T08:26:50.881,-1440.74, 6808354,  61.51, -63.82, 2574837, 2574811, 2574563, 2574748, 2574868,     170,    0.69,   0.657,    5.23,   26.79,    0.22
181035054,2009-02-07T08:26:54.784,-1436.84, 6786709,  61.42, -63.85, 2574828, 2574830, 2574601, 2574784, 2574858,     151,    0.80,   0.651,    5.90,   28.95,    0.14
181035055,2009-02-07T08:26:58.687,-1432.93, 6765124,  61.34, -63.88, 2574841, 2574766, 2574546, 2574723, 2574871,     172,    0.44,   0.634,    3.65,   25.25,    0.42
181035056,2009-02-07T08:27:02.590,-1429.03, 6743539,  61.25, -63.90, 2574839, 2574831, 2574612, 2574786, 2574869,     153,    0.79,   0.625,    5.14,   28.11,    0.12
181035057,2009-02-07T08:27:06.881,-1424.74, 6719706,  61.15, -63.93, 2574829, 2574812, 2574610, 2574779, 2574857,     140,    0.85,   0.609,    5.00,   27.18,    0.15
181035058,2009-02-07T08:27:10.784,-1420.84, 6698180,  61.06, -63.97, 2574828, 2574788, 2574570, 2574736, 2574856,     143,    0.56,   0.602,    4.00,   25.78,    0.25
181035059,2009-02-07T08:27:14.687,-1416.93, 6676535,  60.98, -64.00, 2574813, 2574836, 2574665, 2574828, 2574841,     121,    1.70,   0.593,    7.73,   31.24,    0.06
181035060,2009-02-07T08:27:18.590,-1413.03, 6655100,  60.90, -64.03, 2574859, 2574728, 2574604, 2574763, 2574886,     121,    0.96,   0.579,    5.03,   27.12,    0.05
181035061,2009-02-07T08:27:22.880,-1408.74, 6631357,  60.82, -64.07, 2574858, 2574762, 2574597, 2574752, 2574884,     137,    0.67,   0.568,    5.21,   27.79,    0.17
181035062,2009-02-07T08:27:26.783,-1404.84, 6609712,  60.75, -64.08, 2574853, 2574795, 2574620, 2574764, 2574878,     129,    0.78,   0.526,    4.76,   26.69,    0.12
181035063,2009-02-07T08:27:30.686,-1400.94, 6588307,  60.69, -64.09, 2574841, 2574745, 2574611, 2574744, 2574864,     124,    0.66,   0.484,    3.12,   24.99,    0.18
181035064,2009-02-07T08:27:34.589,-1397.03, 6566691,  60.63, -64.11, 2574859, 2574741, 2574647, 2574772, 2574882,     109,    0.96,   0.447,    5.45,   29.39,    0.08
181035065,2009-02-07T08:27:38.880,-1392.74, 6543038,  60.57, -64.13, 2574838, 2574791, 2574669, 2574785, 2574861,      87,    1.24,   0.404,    7.56,   31.98,    0.04
181035066,2009-02-07T08:27:42.783,-1388.84, 6521483,  60.50, -64.14, 2574867, 2574745, 2574645, 2574755, 2574889,      80,    1.09,   0.370,    7.87,   31.82,    0.07
181035067,2009-02-07T08:27:46.686,-1384.94, 6499928,  60.44, -64.17, 2574791, 2574770, 2574666, 2574770, 2574813,      78,    1.70,   0.339,    7.65,   33.00,    0.12
181035068,2009-02-07T08:27:50.589,-1381.03, 6478433,  60.38, -64.19, 2574791, 2574739, 2574625, 2574724, 2574813,      96,    1.12,   0.308,    4.85,   28.81,    0.03
181035069,2009-02-07T08:27:54.880,-1376.74, 6454839,  60.31, -64.21, 2574792, 2574730, 2574648, 2574743, 2574814,      68,    1.13,   0.279,    6.97,   30.67,    0.08
181035070,2009-02-07T08:27:58.783,-1372.84, 6433374,  60.26, -64.24, 2574773, 2574737, 2574652, 2574744, 2574795,      69,    1.00,   0.259,    6.08,   29.89,    0.05
181035071,2009-02-07T08:28:02.686,-1368.94, 6411789,  60.20, -64.27, 2574799, 2574761, 2574677, 2574767, 2574822,      56,    2.52,   0.243,    9.67,   35.30,    0.21
181035072,2009-02-07T08:28:06.589,-1365.03, 6390324,  60.13, -64.30, 2574782, 2574759, 2574669, 2574757, 2574805,      58,    1.25,   0.229,    7.72,   33.20,    0.14
181035073,2009-02-07T08:28:10.880,-1360.74, 6366790,  60.07, -64.34, 2574771, 2574767, 2574669, 2574757, 2574793,      73,    1.22,   0.229,    7.17,   31.63,    0.06
181035074,2009-02-07T08:28:14.783,-1356.84, 6345265,  60.01, -64.37, 2574780, 2574761, 2574663, 2574751, 2574802,      69,    1.28,   0.235,    7.10,   32.13,    0.10
181035075,2009-02-07T08:28:18.686,-1352.94, 6323830,  59.95, -64.41, 2574805, 2574765, 2574671, 2574760, 2574827,      64,    1.63,   0.244,    9.42,   35.53,    0.15
181035076,2009-02-07T08:28:22.589,-1349.03, 6302394,  59.90, -64.45, 2574787, 2574764, 2574681, 2574772, 2574809,      55,    1.84,   0.268,   10.00,   36.07,    0.18
181035077,2009-02-07T08:28:26.880,-1344.74, 6278951,  59.83, -64.49, 2574792, 2574741, 2574624, 2574717, 2574814,      81,    0.53,   0.292,    5.80,   29.29,    0.10
181035078,2009-02-07T08:28:30.783,-1340.84, 6257486,  59.77, -64.53, 2574793, 2574710, 2574625, 2574722, 2574815,      88,    0.80,   0.319,    4.64,   28.92,    0.09
181035079,2009-02-07T08:28:34.686,-1336.94, 6236050,  59.72, -64.56, 2574796, 2574712, 2574628, 2574729, 2574817,      91,    0.64,   0.351,    6.00,   30.48,    0.15
181035080,2009-02-07T08:28:38.589,-1333.03, 6214705,  59.66, -64.61, 2574770, 2574665, 2574595, 2574701, 2574792,      88,    0.68,   0.384,    5.09,   30.01,    0.09
181035081,2009-02-07T08:28:42.880,-1328.74, 6191111,  59.59, -64.66, 2574796, 2574732, 2574628, 2574742, 2574818,     108,    1.22,   0.429,    3.88,   27.36,    0.10
181035082,2009-02-07T08:28:46.783,-1324.84, 6169796,  59.54, -64.71, 2574790, 2574658, 2574587, 2574708, 2574813,      88,    0.54,   0.466,    5.92,   28.94,    0.11
181035083,2009-02-07T08:28:50.686,-1320.94, 6148481,  59.42, -64.74, 2574793, 2574630, 2574578, 2574699, 2574817,     103,    0.55,   0.467,    5.30,   29.57,    0.29
181035084,2009-02-07T08:28:54.589,-1317.03, 6127016,  59.29, -64.77, 2574844, 2574752, 2574600, 2574719, 2574867,     115,    0.62,   0.461,    4.99,   28.92,    0.13
181035085,2009-02-07T08:28:58.880,-1312.74, 6103572,  59.18, -64.81, 2574842, 2574728, 2574618, 2574739, 2574865,     107,    1.61,   0.473,    2.93,   30.28,    0.05
181035086,2009-02-07T08:29:02.880,-1308.74, 6081717,  59.06, -64.85, 2574849, 2574719, 2574612, 2574735, 2574873,      89,    0.82,   0.480,    5.91,   29.49,    0.02
181035087,2009-02-07T08:29:06.783,-1304.84, 6060312,  58.96, -64.89, 2574833, 2574750, 2574626, 2574751, 2574857,     107,    0.92,   0.492,    4.19,   28.20,    0.06
181035088,2009-02-07T08:29:10.686,-1300.94, 6038997,  58.82, -64.92, 2574826, 2574756, 2574614, 2574737, 2574850,     116,    1.29,   0.485,    4.79,   30.24,    0.01
181035089,2009-02-07T08:29:14.589,-1297.03, 6017771,  58.66, -64.94, 2574815, 2574681, 2574576, 2574694, 2574838,     100,    0.56,   0.461,    2.96,   27.29,    0.16